Location: U-46 Planetarium
(42.0300°N, 88.2740°W)
Time: 08:24:20
(UTC-05:00)

Daily predictions for brighter satellites

Satellite Brightness Start Highest point End
(mag) Time Altitude Azimuth Time Altitude Azimuth Time Altitude Azimuth
Cosmos 1743 4.3 20:48:27 10° NNW 20:52:00 36° W 20:55:31 10° SSW
Meteor 1-15 Rocket 4.3 20:50:00 10° N 20:55:38 88° W 21:01:19 10° S
Atlas Centaur 2 3.6 20:52:18 10° SW 20:58:25 32° S 21:05:28 10° ESE
Cosmos 1461 3.4 20:55:59 10° NW 21:00:11 56° WSW 21:04:10 10° SSE
BREEZE-M DEB (TANK) 2.6 21:00:09 10° SW 21:05:19 55° SSE 21:07:36 10° ENE
Aureole 2 Rocket 4.0 21:01:43 10° SW 21:05:22 43° WNW 21:08:43 10° N
ATLAS 3B R/B 3.5 20:58:54 10° S 21:05:45 36° ESE 21:12:31 10° NE
ISS -3.4 21:02:33 10° SW 21:05:48 74° SE 21:09:03 10° ENE
Cosmos 1603 3.7 21:00:21 10° SSW 21:05:57 83° ESE 21:11:35 10° NNE
ALOS 3.5 21:04:20 10° SSW 21:08:43 41° W 21:13:08 10° NNW
GEOS 3 Rocket 4.0 21:07:42 10° SSE 21:12:55 62° WSW 21:18:06 10° NW
PSLV R/B 3.3 21:14:50 10° WSW 21:18:21 70° S 21:21:55 10° E
Cosmos 1939 Rocket 2.9 21:15:21 10° SSE 21:19:30 87° ENE 21:23:40 10° NNW
Milstar 3 Cent rocket 4.4 21:15:56 10° WSW 21:19:47 14° SW 21:22:50 10° S
Lacrosse 5 rocket 4.3 21:18:41 10° WNW 21:21:09 16° NNW 21:23:43 10° NNE
Cosmos 1943 Rocket 3.8 21:18:52 10° N 21:23:07 22° NE 21:27:23 10° ESE
ERS-1 Rocket 3.6 21:19:14 10° S 21:24:08 56° W 21:29:05 10° NNW
BREEZE M DEB (TANK) 1.2 21:21:52 10° WNW 21:24:30 75° NNE 21:25:59 15° E
USA 186 4.4 21:24:02 10° WSW 21:25:19 13° W 21:26:34 10° WNW
USA 234 3.9 21:19:40 10° ESE 21:25:57 51° NNE 21:32:15 10° NW
SPOT 5 2.6 21:23:00 11° SSE 21:27:11 70° ENE 21:31:31 10° N
Cosmos 1943 3.4 21:21:54 10° S 21:27:21 51° ESE 21:32:52 10° NNE
CZ-4 SHROUD 3.2 21:28:45 13° SSE 21:31:27 87° ENE 21:34:38 10° NNW
Terra 3.7 21:31:28 10° E 21:34:20 16° ENE 21:37:12 10° NNE
Envisat 3.1 21:31:35 10° S 21:36:40 81° WSW 21:41:47 10° NNW
Cosmos 1346 Rocket 3.5 21:34:26 17° SSE 21:36:57 35° E 21:40:33 10° NNE
COSMOS 2455 3.0 21:32:35 10° SSW 21:38:35 79° WNW 21:44:38 10° NNE
Cosmos 407 Rocket 3.9 21:35:03 10° S 21:39:59 42° ESE 21:44:54 10° NNE
Cosmos 1825 Rocket 3.6 21:38:25 11° S 21:42:40 61° E 21:47:02 10° NNE
PSLV R/B 3.5 21:41:01 15° S 21:43:26 65° WSW 21:46:33 10° NNW
SL-27 R/B 4.4 21:46:07 13° E 21:46:07 13° E 21:47:19 10° ENE
Cosmos 1812 Rocket 4.4 21:44:54 10° NNW 21:49:09 50° W 21:53:25 10° SSW
ARGOS 3.3 21:55:38 21° SSE 21:59:15 63° ENE 22:04:38 10° N
H-2A R/B 4.1 21:58:10 10° SSW 22:01:38 24° W 22:05:12 10° NW
Cosmos 1900 4.4 21:56:50 10° SSW 22:01:55 64° ESE 22:07:01 10° NE
Cosmos 1766 3.5 22:05:21 10° N 22:09:18 55° E 22:10:50 33° SE
Cosmos 2369 Rocket 2.3 22:04:41 10° NNW 22:10:20 70° WSW 22:13:56 23° S
USA 81 4.3 22:08:23 10° N 22:13:39 68° W 22:17:46 17° S
Cosmos 2084 4.4 22:09:50 10° NNW 22:13:41 37° NE 22:15:41 24° E
Lacrosse 4 Rocket 1.4 22:10:56 10° SSW 22:14:58 77° WNW 22:19:06 10° NNE
USA 245 4.3 22:13:38 20° S 22:17:48 72° WSW 22:22:46 10° NNW
SL-23 DEB 4.2 22:12:44 10° SW 22:19:07 65° SE 22:22:56 10° ENE
Cosmos 1634 Rocket 4.3 22:15:16 10° NNW 22:21:23 65° W 22:26:12 17° S
SeaSat 1 3.1 22:18:29 21° S 22:21:30 47° WSW 22:26:16 10° NW
NOAA 11 4.1 22:20:26 26° SSE 22:23:36 88° W 22:29:03 10° NNW
SL-08 RB Rocket 3.7 22:25:26 32° S 22:27:32 84° WSW 22:32:06 10° NNW
Geosat 4.1 22:23:52 10° NE 22:28:49 55° ESE 22:31:13 29° S
Cosmos 1953 Rocket 4.2 22:26:34 15° SSW 22:30:04 54° W 22:34:28 10° N
YAOGAN 6 3.9 22:29:04 22° SSW 22:30:57 36° W 22:34:27 10° NNW
CZ-4B R/B 4.4 22:29:40 10° N 22:34:35 48° WNW 22:39:34 10° SW
Cosmos-2242 3.0 22:32:33 10° N 22:36:58 74° E 22:38:15 45° SSE
H-2A R/B 2.0 22:36:00 37° SE 22:37:54 68° ENE 22:42:58 10° N
Cosmos 1850 Rocket 4.5 22:37:40 36° SE 22:38:47 41° ESE 22:43:39 10° NE
Cosmos 1805 3.6 22:35:07 10° N 22:38:58 49° E 22:39:29 46° ESE
Cosmos 1570 Rocket 4.4 22:34:54 10° N 22:40:10 54° ENE 22:42:07 35° ESE
Cosmos 2279 Rocket 4.1 22:36:05 10° N 22:42:20 77° W 22:45:52 28° S
ISS -0.7 22:39:51 10° WNW 22:42:31 23° NNW 22:45:12 10° NE
CZ-4C R/B 3.7 22:41:12 38° SSW 22:42:36 64° WSW 22:46:38 10° NNW
CZ-4C R/B 3.7 22:45:28 18° E 22:45:28 18° E 22:48:18 10° ENE
Cosmos 1544 4.3 22:42:34 10° NNE 22:45:55 30° ENE 22:45:56 30° ENE
Atlas Centaur 2 3.6 22:40:36 10° WSW 22:47:22 34° S 22:49:12 31° SSE
COSMOS 2406 3.2 22:45:47 35° S 22:48:06 61° ESE 22:53:46 10° NNE
Cosmos 1607 4.1 22:45:43 33° S 22:48:11 51° ESE 22:54:11 10° NE
Cosmos 1932 4.3 22:42:59 10° SSW 22:49:10 86° ESE 22:55:26 10° NE
SAR-Lupe-2 3.4 22:49:00 71° S 22:49:22 84° W 22:52:58 10° NNW
Cosmos 1140 Rocket 3.4 22:47:56 38° S 22:49:53 68° ESE 22:55:06 10° NNE
Landsat 7 4.1 22:54:04 37° SSW 22:55:45 60° W 23:00:29 10° NNW
PSLV R/B 3.8 22:52:25 10° W 22:55:15 50° WSW 22:55:15 50° WSW
ATLAS 3B R/B 3.6 22:48:45 10° SW 22:56:18 56° NW 23:03:40 10° NNE
Cosmos 1953 2.3 22:55:11 10° NNW 22:59:10 74° W 22:59:43 61° SSW
Okean 3 Rocket 4.3 23:04:23 37° E 23:04:23 37° E 23:08:21 10° NNE
Spot 4 3.7 23:04:05 53° S 23:05:14 86° WSW 23:10:04 10° NNW
NOSS 3-2 (A) 4.1 23:05:22 35° ESE 23:05:37 35° ESE 23:11:26 10° NE
CARTOSAT-1 3.8 23:05:16 48° SSW 23:06:10 61° W 23:10:28 10° NNW
Cosmos 1943 Rocket 2.4 23:01:49 10° NNW 23:07:17 60° WSW 23:09:02 41° SSW
USA 234 3.5 23:06:30 37° S 23:08:54 54° SW 23:15:20 10° NW
DMSP B5D2-2 4.1 23:05:15 10° N 23:10:33 80° WNW 23:12:38 38° SSW
Terra 2.1 23:10:21 45° SSW 23:11:34 60° W 23:16:17 10° NNW
Cosmos 1707 3.9 23:12:54 32° ENE 23:12:54 32° ENE 23:15:47 10° NNE
Cosmos 614 Rocket 3.9 23:13:24 55° SSE 23:14:25 71° ESE 23:19:38 10° NNE
Cosmos 1656 Rocket 3.6 23:12:31 10° NNW 23:18:15 81° ENE 23:19:41 52° SE
SL-27 R/B 4.0 23:19:48 26° W 23:20:34 29° WNW 23:23:33 10° N
COSMOS 2487 3.3 23:23:16 45° NE 23:23:16 45° NE 23:25:55 10° NNE
Lacrosse 5 4.3 23:19:18 10° NNW 23:22:55 19° NNE 23:26:31 10° ENE
ALOS 2 4.2 23:27:55 23° ENE 23:28:22 24° ENE 23:31:52 10° NNE
Meteor 1-24 Rocket 4.4 23:29:45 39° ESE 23:30:34 42° E 23:36:05 10° NNE
Cosmos 1842 Rocket 4.0 23:30:06 10° NNW 23:34:21 51° W 23:34:46 49° WSW
USA 238 DEB 4.1 23:31:43 10° SW 23:38:44 63° NW 23:45:46 10° NNE
USA 238 4.1 23:31:48 10° SW 23:38:50 64° NW 23:45:52 10° NNE
Cosmos 1733 3.5 23:35:57 10° N 23:39:17 63° NNE 23:39:17 63° NNE
CZ-4B R/B 3.4 23:44:25 25° NE 23:44:25 25° NE 23:47:00 10° NNE
Cosmos 1092 Rocket 4.3 23:47:06 37° SW 23:49:32 61° W 23:55:47 10° N
